Location: downtown San Diego
(32.7310°N, 117.1990°W)
Time: 05:00:21
(UTC-07:00)

Tiangong 2 - Pass Details

Date: 12 July 2018
Orbit: 386 x 394 km, 42.8° (Epoch: 21 July)

Event Time Altitude Azimuth Distance (km) Brightness Sun altitude
Rises 22:55:58 0° 289° (WNW) 2,262 5.7 -28.5°
Reaches altitude 10° 22:58:43 10° 315° (NW) 1,407 4.8 -28.8°
Enters shadow 22:59:55 14° 337° (NNW) 1,195 4.4 -29.0°
